Location: Navalespino
(40.5894°N, 4.2660°W)
Time: 02:46:11
(UTC+00:00)

CZ-4C R/B - Pass Details

Date: 18 April 2024
Orbit: 530 x 1464 km, 63.4° (Epoch: 28 May)

Event Time Altitude Azimuth Distance (km) Brightness Sun altitude
Rises 22:18:13 0° 325° (NW) 3,866 6.8 -31.4°
Reaches altitude 10° 22:20:41 10° 325° (NW) 3,029 5.9 -31.7°
Maximum altitude 22:28:12 87° 237° (WSW) 1,318 3.0 -32.5°
Enters shadow 22:28:39 82° 166° (SSE) 1,337 2.9 -32.5°
